This is the latest recevied weather packets stored in our database for station/object KF4LQQ-13. If no packets are shown the sender has not sent any weather packets the latest 1 day(s).
| Time | Temp. | Humidity | Pressure | Rain* | Wind** | Luminosity | Snow |
|---|---|---|---|---|---|---|---|
| 1836274472 | 27.22° C | - | 1013.9 hPa | 0 mm | 2.24 m/s, 121° | - | - |
| 1836274393 | 27.22° C | - | 1013.9 hPa | 0 mm | 2.24 m/s, 121° | - | - |
| 1836274244 | 26.67° C | - | 1014 hPa | 0 mm | 2.24 m/s, 143° | - | - |
| 1778046410 | 23.89° C | - | 1013.6 hPa | 0 mm | 1.79 m/s, 122° | - | - |
| 1778045936 | 23.89° C | - | 1013.6 hPa | 0 mm | 1.79 m/s, 91° | - | - |
| 1778045810 | 23.89° C | - | 1013.6 hPa | 0 mm | 1.79 m/s, 91° | - | - |
| 1778045210 | 24.44° C | - | 1013.7 hPa | 0 mm | 1.79 m/s, 118° | - | - |
| 1778044609 | 24.44° C | - | 1014 hPa | 0 mm | 0.89 m/s, 121° | - | - |
| 1778044009 | 24.44° C | - | 1014.1 hPa | 0 mm | 2.24 m/s, 79° | - | - |
| 1778043408 | 24.44° C | - | 1014 hPa | 0 mm | 1.34 m/s, 84° | - | - |
| 1778042808 | 24.44° C | - | 1013.9 hPa | 0 mm | 2.24 m/s, 68° | - | - |
| 1778042207 | 24.44° C | - | 1013.9 hPa | 0 mm | 1.34 m/s, 110° | - | - |
| 1778041607 | 24.44° C | - | 1013.9 hPa | 0 mm | 1.34 m/s, 31° | - | - |
| 1778041007 | 25° C | - | 1013.8 hPa | 0 mm | 2.24 m/s, 66° | - | - |
| 1778040437 | 25° C | - | 1013.7 hPa | 0 mm | 2.24 m/s, 53° | - | - |
| 1778040407 | 25° C | - | 1013.7 hPa | 0 mm | 2.24 m/s, 53° | - | - |
| 1778039806 | 25° C | - | 1014 hPa | 0 mm | 2.24 m/s, 98° | - | - |
| 1778039322 | 25° C | - | 1013.8 hPa | 0 mm | 3.13 m/s, 107° | - | - |
| 1778039206 | 25° C | - | 1013.8 hPa | 0 mm | 3.13 m/s, 107° | - | - |
| 1778038606 | 25° C | - | 1013.8 hPa | 0 mm | 3.13 m/s, 53° | - | - |
| 1778038005 | 25° C | - | 1013.9 hPa | 0 mm | 3.13 m/s, 66° | - | - |
| 1778037404 | 25° C | - | 1013.8 hPa | 0 mm | 1.34 m/s, 58° | - | - |
| 1778036804 | 25° C | - | 1013.7 hPa | 0 mm | 1.79 m/s, 63° | - | - |
| 1778036389 | 25° C | - | 1013.7 hPa | 0 mm | 0.45 m/s, 56° | - | - |
| 1778036204 | 25° C | - | 1013.7 hPa | 0 mm | 0.45 m/s, 56° | - | - |
* Rain since midnight (hover to see other rain measurements)
** Current wind speed in m/s (hover to see current wind gust speed)